Regional Weather Roundup
Issued by NWS Upton, NY

Current Version | Previous Version | Graphics & Text | Print | Product List | Glossary Off
Versions: 1 2 3 4 5 6 7 8 9 10 11 12 13 14 15 16 17 18 19 20 21 22 23 24 25 26

000
ASUS41 KOKX 181508
RWROKX

REGIONAL WEATHER ROUNDUP
NATIONAL WEATHER SERVICE NEW YORK NY
1000 AM EST WED JAN 18 2017

NOTE: "FAIR" INDICATES FEW OR NO CLOUDS BELOW 12,000 FEET WITH NO
SIGNIFICANT WEATHER AND/OR OBSTRUCTIONS TO VISIBILITY.

NYZ071-072-176-178-NJZ106-104-181600-
NEW YORK CITY METRO AREA

CITY           SKY/WX    TMP DP  RH WIND       PRES   REMARKS
Central Park   CLOUDY    39  38  96 NE7       29.96R FOG     WCI  34
Wall St Helipt CLOUDY    41  39  93 NE13      29.93F
Bronx Bot Gard NOT AVBL
LaGuardia APRT DRIZZLE   42  38  85 NE14      29.94R FOG
Kennedy INTL   DRIZZLE   41  37  86 N13       29.93F FOG
Breezy Point     N/A     39 N/A N/A N9G15       N/A  WCI  33
Newark/Liberty DRIZZLE   40  39  97 N13       29.93S FOG     WCI  32
Teterboro      CLOUDY    41  38  89 N7        29.94R FOG
$$

NYZ177-179-078>081-181600-
LONG ISLAND NEW YORK

CITY           SKY/WX    TMP DP  RH WIND       PRES   REMARKS
Jones Beach      N/A     39 N/A N/A NE16        N/A  WCI  30
Matinecock PT  NOT AVBL
Farmingdale    CLOUDY    40  38  93 NE14      29.92S WCI  32
MacArthur/ISP  DRIZZLE   40  39  97 NE9       29.92R FOG     WCI  34
Shirley        CLOUDY    40  39  97 VRB7      29.93S FOG
Westhampton    LGT RAIN  40  38  93 NE15      29.92F FOG     WCI  32
Southampton    NOT AVBL
Bridgehampton  NOT AVBL
East Hampton   DRIZZLE   39  38  95 NE9       29.93R WCI  33
Montauk          N/A     41  40  96 NE9G17    29.93R
$$

NYZ052-065-067-181600-
HUDSON VALLEY

CITY           SKY/WX    TMP DP  RH WIND       PRES   REMARKS
White Plains   DRIZZLE   39  36  89 N5        29.92R FOG
Newburgh       CLOUDY    36  36 100 CALM      29.96R FOG
Montgomery     CLOUDY    37  35  92 NE5       29.94S FOG     WCI  33
Poughkeepsie   CLOUDY    36  35  96 N3        29.96R FOG
Albany         DRZL/FOG  34  32  92 CALM      29.97S VSB 1
$$

NJZ001-105-106-008-010-013-015-019>022-104-181600-
NEW JERSEY

CITY           SKY/WX    TMP DP  RH WIND       PRES   REMARKS
Newark/Liberty DRIZZLE   40  39  97 N13       29.93S FOG     WCI  32
Teterboro      CLOUDY    41  38  89 N7        29.94R FOG
Caldwell       CLOUDY    38  37  97 NE7       29.94F FOG     WCI  33
Somerville     CLOUDY    40  37  89 N5        29.93R
Linden         CLOUDY    40  38  93 CALM      29.94R FOG
Sussex         CLOUDY    36  36 100 CALM      29.94S FOG
Andover          N/A     35  34  96 CALM      29.94S
Trenton        CLOUDY    41  39  93 N8        29.93R
Millville      CLOUDY    43  43 100 N9        29.91S FOG
Atlantic City  CLOUDY    43  41  93 NW10      29.92R
Wrightstown    NOT AVBL
Toms River     CLOUDY    40  40 100 N8        29.92S FOG     WCI  34
Belmar         FOG       41  40  96 N9        29.93R VSB 3/4
$$

PAZ047>061-062-071-181600-
EASTERN PENNSYLVANIA

CITY           SKY/WX    TMP DP  RH WIND       PRES   REMARKS
Philadelphia   CLOUDY    43  40  89 N8        29.94R
Allentown      LGT RAIN  40  36  86 VRB6      29.94F
Scranton       FOG       36  36 100 NE3       29.92R VSB 1/4
$$

CTZ002-004>006-009-010-012-RIZ004-006-007-MAZ004-011-015-181600-
SOUTHERN NEW ENGLAND
 IN CT

CITY           SKY/WX    TMP DP  RH WIND       PRES   REMARKS
Bradley INTL   DRIZZLE   36  35  96 N9        29.98S FOG     WCI  29
Hartford       CLOUDY    36  35  96 N12       29.98R FOG     WCI  28
Danbury        CLOUDY    37  35  92 NE6       29.95S FOG     WCI  32
Wtrbury/Oxford CLOUDY    36  32  87 NE8G17    29.94R FOG     WCI  29
Bridgeport     CLOUDY    40  36  86 NE13      29.94R WCI  32
Meriden        CLOUDY    38  34  85 N8        29.96S FOG     WCI  32
New Haven      CLOUDY    38  36  92 N14       29.94S WCI  30
Chester        CLOUDY    37  37 100 NE8       29.93S FOG     WCI  31
Groton         CLOUDY    40  38  93 N10       29.94S FOG     WCI  33
Wilimantic     CLOUDY    38  37  97 NE7       29.97S FOG     WCI  33

 IN RI

CITY           SKY/WX    TMP DP  RH WIND       PRES   REMARKS
Providence     LGT RAIN  38  36  92 N10       29.97R FOG     WCI  31
Block Island   NOT AVBL
Westerly       CLOUDY    40  36  86 NE8       29.94R FOG     WCI  34
 IN MA

CITY           SKY/WX    TMP DP  RH WIND       PRES   REMARKS
Boston         LGT RAIN  39  39 100 NE16      30.00S FOG     WCI  30
Worcester      FOG       32  30  92 NE9G17    29.95R VSB 1/4 WCI  24
Westfield      CLOUDY    35  34  96 N7        29.99R FOG     WCI  29
Provincetown   CLOUDY    40  39  97 E16G22    29.97F FOG     WCI  31
Nantucket      CLOUDY    42  40  92 E16G25    29.91R FOG
$$

ANZ330-335-338-340-345-350-353-355-181600-
COASTAL MARINE OBSERVATIONS


STATION/POSITION TIME  SKY/WX   TEMP    WIND        PRES    VSBY  WAVE
                                AIR SEA DIR/SP/G                  HT/PER
                 (UTC)          (F)     (DEG/KT/KT) (MB)    (MI)  (FT/S)
NY HARB ENTRANCE 1350            42 44   10/ 14/ 16 1012.5          3/ 6
20 S FIRE ISLAND 1450            42 45   30/ 19/ 23 1011.4          5/ 5
GREAT SOUTH BAY  NOT AVBL
23 SSW MONTAUK P 1350            45 48   60/ 19/ 21 1011.7          7/ 6
15 E BARNEGAT LI 1430               46                N/A           3/ 4
HUDSON CANYON    1350            51 53              1009.8          3/ 5
KINGS POINT      1442            39 38              1013.5
EXECUTION ROCKS  1445            39      20/ 10/ 12   N/A
CENTRAL LI SOUND 1430            39      20/ 12/ 14   N/A           2/ 4
EASTERN LI SOUND NOT AVBL
ROBBINS REEF     1448            39     360/ 11/ 12 1013.6
$$


>>>>>>>>>>>>>>>>>>>>>>>>>>>> KEY <<<<<<<<<<<<<<<<<<<<<<<<<<<
>                                                          <
>     SKY/WX - Sky Condition/Present Weather               <
>     TMP    - Temperature in Fahrenheit                   <
>     DP     - Dew Point in Fahrenheit                     <
>     RH     - Relative Humidity in Percent                <
>     WIND   - Direction (from) and Speed in MPH           <
>     PRES   - Mean Sea Level Pressure (inches of Hg)      <
>     WCI    - Wind Chill Index                            <
>     VSB    - VISIBILITY IN MILES                         <
>     HX     - HEAT INDEX                                  <
>     TC     - TEMPERATURE IN CELSIUS                      <
>     VRB    - VARIABLE WIND DIRECTION                     <
>                                                          <
>>>>>>>>>>>>>>>>>>>>>>>>>>>> KEY <<<<<<<<<<<<<<<<<<<<<<<<<<<




USA.gov is the U.S. government's official web portal to all federal, state and local government web resources and services.